Location: Grisols
(45.0093°N, 3.1167°E)
Time: 02:17:43
(UTC+00:00)

SMAP - Pass Details

Date: 21 October 2019
Orbit: 682 x 683 km, 98.1° (Epoch: 18 November)

Event Time Altitude Azimuth Distance (km) Brightness Sun altitude
Rises 17:35:07 0° 180° (S) 3,030 6.5 -8.1°
Reaches altitude 10° 17:37:25 10° 185° (S) 2,119 5.8 -8.5°
Maximum altitude 17:41:54 49° 260° (W) 887 4.2 -9.3°
Drops below altitude 10° 17:46:26 10° 336° (NNW) 2,135 5.9 -10.1°
Sets 17:48:45 0° 342° (NNW) 3,055 6.6 -10.5°
